Omaha Offutt, NE

12:17 PM CST on December 15, 2017 (GMT -0600)
Offutt Air Force Base

Weather History for KOFF - November, 2013

Change the Weather History Date:

Tuesday, November 26, 2013

  Actual Average Record
Temperature  
Mean Temperature 24 °F -  
Max Temperature 33 °F 44 °F 64 °F (1998)
Min Temperature 14 °F 26 °F 8 °F (1996)
Degree Days  
Heating Degree Days 40    
Moisture  
Dew Point 16 °F    
Average Humidity 66    
Maximum Humidity 96    
Minimum Humidity 37    
Precipitation  
Precipitation 0.00 in - - ()
Sea Level Pressure  
Sea Level Pressure 30.37 in    
Wind  
Wind Speed 10 mph (NW)    
Max Wind Speed 23 mph    
Max Gust Speed 31 mph    
Visibility 10 miles    
Events      
Averages and records for this station are not official NWS values.
T = Trace of Precipitation, MM = Missing Value Source: NWS Daily Summary

Daily Weather History Graph

Daily Weather History Graph

Search for Another Location

Airport or City:

Trip Planner

Search our weather history database for the weather conditions in past years. The results will help you decide how hot, cold, wet, or windy it might be!

Date:

Astronomy

Nov. 26, 2013 Rise Set
Actual Time 7:24 AM CST 4:57 PM CST
Civil Twilight 6:54 AM CST 5:27 PM CST
Nautical Twilight 6:20 AM CST 6:01 PM CST
Astronomical Twilight 5:47 AM CST 6:34 PM CST
Moon 12:25 AM CST (11/26) 1:07 PM CST (11/26)
Length of Visible Light 10h 33m
Length of Day
9h 32m
Last Quarter, 41% of the Moon is Illuminated
Nov 26
Last Quarter
Dec 2
New
Dec 9
First Quarter
Dec 17
Full
Dec 25
Last Quarter

Hourly Weather History & Observations

Time (CST) Temp. Windchill Dew Point Humidity Pressure Visibility Wind Dir Wind Speed Gust Speed Precip Events Conditions
12:58 AM 28.8 °F 23.7 °F 25.0 °F 86% 30.23 in 10.0 mi WNW 4.6 mph - N/A   Mostly Cloudy
1:58 AM 27.3 °F 19.1 °F 24.3 °F 88% 30.25 in 10.0 mi WNW 8.1 mph - N/A   Clear
2:58 AM 23.5 °F 16.4 °F 22.6 °F 96% 30.25 in 10.0 mi WNW 5.8 mph - N/A   Clear
3:58 AM 23.7 °F 16.6 °F 22.1 °F 94% 30.25 in 10.0 mi NW 5.8 mph - N/A   Clear
4:58 AM 23.2 °F 14.1 °F 21.4 °F 93% 30.26 in 10.0 mi NW 8.1 mph - N/A   Clear
5:58 AM 24.8 °F 16.9 °F 22.3 °F 90% 30.28 in 10.0 mi NW 6.9 mph - N/A   Scattered Clouds
6:58 AM 28.8 °F 19.0 °F 24.1 °F 83% 30.30 in 10.0 mi NW 11.5 mph - N/A   Overcast
7:58 AM 30.4 °F 20.5 °F 24.1 °F 77% 30.32 in 10.0 mi NNW 12.7 mph 19.6 mph N/A   Overcast
8:08 AM 32.0 °F 22.5 °F 24.8 °F 75% 30.29 in 10.0 mi NNW 12.7 mph 25.3 mph N/A   Overcast
8:53 AM 32.0 °F 23.6 °F 24.8 °F 75% 30.31 in 10.0 mi North 10.4 mph - N/A   Mostly Cloudy
8:58 AM 32.0 °F 22.5 °F 24.1 °F 73% 30.36 in 10.0 mi NNW 12.7 mph 17.3 mph N/A   Mostly Cloudy
9:38 AM 32.0 °F 22.5 °F 23.0 °F 69% 30.32 in 10.0 mi NNW 12.7 mph 25.3 mph N/A   Mostly Cloudy
9:48 AM 32.0 °F 19.8 °F 23.0 °F 69% 30.32 in 10.0 mi NNW 20.7 mph 26.5 mph N/A   Mostly Cloudy
9:59 AM 32.2 °F 21.8 °F 22.1 °F 66% 30.38 in 10.0 mi NNW 15.0 mph 20.7 mph N/A   Mostly Cloudy
10:58 AM 33.6 °F 24.6 °F 18.9 °F 55% 30.40 in 10.0 mi NNW 12.7 mph 26.5 mph N/A   Partly Cloudy
11:58 AM 32.2 °F 20.4 °F 14.9 °F 49% 30.39 in 10.0 mi NNW 19.6 mph 28.8 mph N/A   Partly Cloudy
12:58 PM 31.5 °F 20.9 °F 8.8 °F 39% 30.39 in 10.0 mi NNW 15.0 mph 29.9 mph N/A   Clear
1:58 PM 29.7 °F 16.1 °F 9.3 °F 43% 30.40 in 10.0 mi NW 23.0 mph 27.6 mph N/A   Clear
2:58 PM 29.3 °F 17.7 °F 6.1 °F 37% 30.41 in 10.0 mi North 16.1 mph 27.6 mph N/A   Clear
3:58 PM 28.2 °F 14.8 °F 5.2 °F 38% 30.41 in 10.0 mi NW 20.7 mph 31.1 mph N/A   Clear
4:58 PM 26.2 °F 12.6 °F 5.5 °F 41% 30.43 in 10.0 mi NNW 19.6 mph 24.2 mph N/A   Clear
5:58 PM 25.0 °F 12.6 °F 5.7 °F 44% 30.45 in 10.0 mi NW 15.0 mph 21.9 mph N/A   Clear
6:58 PM 23.9 °F 13.5 °F 5.7 °F 46% 30.46 in 10.0 mi NW 10.4 mph - N/A   Clear
7:58 PM 22.1 °F 12.8 °F 5.9 °F 50% 30.47 in 10.0 mi NNW 8.1 mph - N/A   Clear
8:58 PM 19.8 °F 9.1 °F 7.2 °F 58% 30.47 in 10.0 mi WNW 9.2 mph - N/A   Clear
9:58 PM 16.9 °F 5.5 °F 8.1 °F 68% 30.47 in 10.0 mi WNW 9.2 mph - N/A   Clear
10:58 PM 16.0 °F 8.8 °F 8.8 °F 73% 30.48 in 10.0 mi NW 4.6 mph - N/A   Clear
11:58 PM 14.9 °F 4.0 °F 9.1 °F 78% 30.48 in 10.0 mi WNW 8.1 mph - N/A   Clear